Lakeview AWS, OR

10:15 PM PST on February 20, 2018 (GMT -0800)
Lake County

Weather History for KLKV - November, 2013

Change the Weather History Date:

Friday, November 22, 2013

  Actual Average Record
Temperature  
Mean Temperature 30 °F -  
Max Temperature 39 °F 41 °F 69 °F (1936)
Min Temperature 21 °F 25 °F 4 °F (1931)
Degree Days  
Heating Degree Days 35    
Moisture  
Dew Point 7 °F    
Average Humidity 38    
Maximum Humidity 54    
Minimum Humidity 26    
Precipitation  
Precipitation 0.00 in - - ()
Sea Level Pressure  
Sea Level Pressure 30.42 in    
Wind  
Wind Speed 17 mph (North)    
Max Wind Speed 24 mph    
Max Gust Speed 31 mph    
Visibility 10 miles    
Events      
Averages and records for this station are not official NWS values.
T = Trace of Precipitation, MM = Missing Value Source: NWS Daily Summary

Daily Weather History Graph

Daily Weather History Graph

Search for Another Location

Airport or City:

Trip Planner

Search our weather history database for the weather conditions in past years. The results will help you decide how hot, cold, wet, or windy it might be!

Date:

Astronomy

Nov. 22, 2013 Rise Set
Actual Time 7:00 AM PST 4:34 PM PST
Civil Twilight 6:30 AM PST 5:05 PM PST
Nautical Twilight 5:55 AM PST 5:39 PM PST
Astronomical Twilight 5:22 AM PST 6:12 PM PST
Moon 9:13 PM PST (11/22) 10:45 AM PST (11/22)
Length of Visible Light 10h 35m
Length of Day
9h 33m
Waning Gibbous, 77% of the Moon is Illuminated
Nov 22
Waning Gibbous
Nov 25
Last Quarter
Dec 2
New
Dec 9
First Quarter
Dec 17
Full

Hourly Weather History & Observations

Time (PST) Temp. Windchill Dew Point Humidity Pressure Visibility Wind Dir Wind Speed Gust Speed Precip Events Conditions
12:15 AM 24.8 °F 11.9 °F 5.0 °F 43% 30.42 in 10.0 mi NNW 16.1 mph - N/A   Clear
12:35 AM 24.8 °F 11.9 °F 3.2 °F 40% 30.43 in 10.0 mi NNW 16.1 mph - N/A   Clear
12:55 AM 23.0 °F 9.6 °F 5.0 °F 46% 30.43 in 10.0 mi NNW 16.1 mph - N/A   Clear
1:15 AM 21.2 °F 7.3 °F 6.8 °F 54% 30.44 in 10.0 mi NNW 16.1 mph - N/A   Clear
1:35 AM 21.2 °F 6.8 °F 6.8 °F 54% 30.44 in 10.0 mi NNW 17.3 mph - N/A   Clear
1:55 AM 21.2 °F 7.8 °F 6.8 °F 54% 30.44 in 10.0 mi NNW 15.0 mph - N/A   Clear
2:15 AM 21.2 °F 8.3 °F 6.8 °F 54% 30.44 in 10.0 mi North 13.8 mph - N/A   Clear
2:35 AM 21.2 °F 8.3 °F 6.8 °F 54% 30.44 in 10.0 mi NNW 13.8 mph - N/A   Clear
2:55 AM 21.2 °F 7.3 °F 6.8 °F 54% 30.44 in 10.0 mi North 16.1 mph 20.7 mph N/A   Clear
3:15 AM 23.0 °F 9.6 °F 6.8 °F 50% 30.45 in 10.0 mi North 16.1 mph - N/A   Clear
3:35 AM 21.2 °F 7.3 °F 5.0 °F 50% 30.45 in 10.0 mi North 16.1 mph - N/A   Clear
3:55 AM 21.2 °F 8.9 °F 6.8 °F 54% 30.45 in 10.0 mi North 12.7 mph - N/A   Clear
4:15 AM 23.0 °F 9.6 °F 6.8 °F 50% 30.45 in 10.0 mi NNW 16.1 mph - N/A   Clear
4:35 AM 21.2 °F 6.4 °F 6.8 °F 54% 30.45 in 10.0 mi North 18.4 mph 23.0 mph N/A   Clear
4:55 AM 23.0 °F 8.0 °F 5.0 °F 46% 30.45 in 10.0 mi North 20.7 mph 25.3 mph N/A   Clear
5:15 AM 21.2 °F 6.8 °F 5.0 °F 50% 30.44 in 10.0 mi North 17.3 mph 24.2 mph N/A   Clear
5:35 AM 21.2 °F 7.3 °F 5.0 °F 50% 30.44 in 10.0 mi North 16.1 mph - N/A   Clear
5:55 AM 23.0 °F 8.7 °F 5.0 °F 46% 30.44 in 10.0 mi North 18.4 mph 24.2 mph N/A   Clear
6:15 AM 23.0 °F 8.7 °F 5.0 °F 46% 30.45 in 10.0 mi North 18.4 mph 24.2 mph N/A   Clear
6:35 AM 21.2 °F 6.4 °F 3.2 °F 46% 30.45 in 10.0 mi North 18.4 mph 23.0 mph N/A   Clear
6:55 AM 21.2 °F 6.8 °F 5.0 °F 50% 30.44 in 10.0 mi North 17.3 mph 23.0 mph N/A   Clear
7:15 AM 21.2 °F 6.0 °F 5.0 °F 50% 30.44 in 10.0 mi North 19.6 mph 25.3 mph N/A   Clear
7:35 AM 23.0 °F 8.3 °F 5.0 °F 46% 30.45 in 10.0 mi North 19.6 mph 26.5 mph N/A   Clear
7:55 AM 24.8 °F 10.3 °F 5.0 °F 43% 30.46 in 10.0 mi North 20.7 mph 27.6 mph N/A   Clear
8:15 AM 24.8 °F 10.3 °F 5.0 °F 43% 30.46 in 10.0 mi North 20.7 mph 29.9 mph N/A   Clear
8:35 AM 26.6 °F 14.3 °F 6.8 °F 43% 30.46 in 10.0 mi North 16.1 mph 26.5 mph N/A   Clear
8:55 AM 28.4 °F 16.6 °F 6.8 °F 40% 30.47 in 10.0 mi North 16.1 mph 23.0 mph N/A   Clear
9:15 AM 30.2 °F 18.1 °F 5.0 °F 34% 30.47 in 10.0 mi North 18.4 mph 23.0 mph N/A   Clear
9:35 AM 32.0 °F 20.8 °F 6.8 °F 35% 30.47 in 10.0 mi North 17.3 mph 25.3 mph N/A   Clear
9:55 AM 33.8 °F 23.9 °F 6.8 °F 32% 30.47 in 3.0 mi North 15.0 mph 21.9 mph N/A   Clear
10:15 AM 35.6 °F 25.5 °F 6.8 °F 30% 30.46 in 10.0 mi North 17.3 mph 24.2 mph N/A   Clear
10:35 AM 37.4 °F 28.2 °F 6.8 °F 28% 30.45 in 10.0 mi North 16.1 mph 21.9 mph N/A   Clear
10:55 AM 37.4 °F 27.2 °F 5.0 °F 26% 30.45 in 10.0 mi North 19.6 mph 25.3 mph N/A   Clear
11:15 AM 37.4 °F 27.2 °F 6.8 °F 28% 30.44 in 10.0 mi North 19.6 mph 26.5 mph N/A   Clear
11:35 AM 39.2 °F 29.6 °F 6.8 °F 26% 30.43 in 10.0 mi North 19.6 mph 25.3 mph N/A   Clear
11:55 AM 39.2 °F 29.3 °F 6.8 °F 26% 30.43 in 10.0 mi North 20.7 mph 27.6 mph N/A   Clear
12:15 PM 39.2 °F 28.5 °F 6.8 °F 26% 30.43 in 10.0 mi North 24.2 mph 28.8 mph N/A   Clear
12:35 PM 39.2 °F 28.7 °F 8.6 °F 28% 30.43 in 10.0 mi North 23.0 mph 28.8 mph N/A   Clear
12:55 PM 39.2 °F 29.8 °F 8.6 °F 28% 30.43 in 10.0 mi North 18.4 mph 27.6 mph N/A   Clear
1:15 PM 39.2 °F 29.6 °F 8.6 °F 28% 30.42 in 10.0 mi North 19.6 mph 27.6 mph N/A   Clear
1:35 PM 39.2 °F 29.6 °F 8.6 °F 28% 30.41 in 10.0 mi North 19.6 mph 27.6 mph N/A   Clear
1:55 PM 39.2 °F 29.8 °F 8.6 °F 28% 30.41 in 10.0 mi North 18.4 mph 25.3 mph N/A   Clear
2:15 PM 39.2 °F 30.8 °F 8.6 °F 28% 30.40 in 10.0 mi North 15.0 mph 25.3 mph N/A   Clear
2:35 PM 39.2 °F 29.6 °F 10.4 °F 31% 30.39 in 10.0 mi North 19.6 mph 24.2 mph N/A   Clear
2:55 PM 39.2 °F 30.8 °F 10.4 °F 31% 30.39 in 10.0 mi North 15.0 mph 23.0 mph N/A   Clear
3:15 PM 39.2 °F 29.8 °F 8.6 °F 28% 30.39 in 10.0 mi North 18.4 mph 24.2 mph N/A   Clear
3:35 PM 37.4 °F 27.8 °F 10.4 °F 33% 30.39 in 10.0 mi NNW 17.3 mph 20.7 mph N/A   Clear
3:55 PM 37.4 °F 27.8 °F 10.4 °F 33% 30.39 in 10.0 mi North 17.3 mph 24.2 mph N/A   Clear
4:15 PM 35.6 °F 26.6 °F 8.6 °F 33% 30.39 in 10.0 mi North 13.8 mph 21.9 mph N/A   Clear
4:35 PM 33.8 °F 23.9 °F 8.6 °F 35% 30.39 in 10.0 mi North 15.0 mph - N/A   Clear
4:55 PM 33.8 °F 24.3 °F 8.6 °F 35% 30.40 in 10.0 mi North 13.8 mph - N/A   Clear
5:15 PM 33.8 °F 23.5 °F 8.6 °F 35% 30.39 in 10.0 mi North 16.1 mph 19.6 mph N/A   Clear
5:35 PM 33.8 °F 23.9 °F 8.6 °F 35% 30.40 in 10.0 mi North 15.0 mph - N/A   Clear
5:55 PM 33.8 °F 23.9 °F 8.6 °F 35% 30.40 in 10.0 mi North 15.0 mph - N/A   Clear
6:15 PM 33.8 °F 23.9 °F 8.6 °F 35% 30.39 in 10.0 mi NNE 15.0 mph 20.7 mph N/A   Clear
6:35 PM 33.8 °F 23.5 °F 8.6 °F 35% 30.39 in 10.0 mi North 16.1 mph 21.9 mph N/A   Clear
6:55 PM 33.8 °F 23.5 °F 8.6 °F 35% 30.39 in 10.0 mi North 16.1 mph 21.9 mph N/A   Clear
7:15 PM 33.8 °F 23.5 °F 8.6 °F 35% 30.39 in 10.0 mi North 16.1 mph 20.7 mph N/A   Clear
7:35 PM 33.8 °F 23.5 °F 8.6 °F 35% 30.38 in 10.0 mi North 16.1 mph - N/A   Clear
7:55 PM 33.8 °F 23.5 °F 8.6 °F 35% 30.39 in 10.0 mi North 16.1 mph - N/A   Clear
8:15 PM 33.8 °F 22.5 °F 8.6 °F 35% 30.38 in 10.0 mi North 19.6 mph 25.3 mph N/A   Clear
8:35 PM 33.8 °F 22.8 °F 6.8 °F 32% 30.39 in 10.0 mi NNE 18.4 mph - N/A   Clear
8:55 PM 33.8 °F 22.8 °F 8.6 °F 35% 30.39 in 10.0 mi NNE 18.4 mph - N/A   Clear
9:15 PM 33.8 °F 22.2 °F 8.6 °F 35% 30.38 in 10.0 mi NNE 20.7 mph 27.6 mph N/A   Clear
9:35 PM 32.0 °F 18.9 °F 6.8 °F 35% 30.37 in 10.0 mi NNE 24.2 mph 27.6 mph N/A   Clear
9:55 PM 32.0 °F 19.5 °F 8.6 °F 38% 30.37 in 10.0 mi NNE 21.9 mph 31.1 mph N/A   Clear
10:15 PM 32.0 °F 19.5 °F 8.6 °F 38% 30.36 in 10.0 mi NNE 21.9 mph 27.6 mph N/A   Clear
10:35 PM 32.0 °F 20.1 °F 8.6 °F 38% 30.36 in 10.0 mi NNE 19.6 mph - N/A   Clear
10:55 PM 33.8 °F 22.5 °F 8.6 °F 35% 30.36 in 10.0 mi North 19.6 mph 26.5 mph N/A   Clear
11:15 PM 32.0 °F 20.1 °F 6.8 °F 35% 30.35 in 10.0 mi NNE 19.6 mph - N/A   Clear
11:35 PM 32.0 °F 20.5 °F 6.8 °F 35% 30.34 in 10.0 mi NNE 18.4 mph 21.9 mph N/A   Clear
11:55 PM 33.8 °F 22.5 °F 6.8 °F 32% 30.34 in 10.0 mi North 19.6 mph 25.3 mph N/A   Clear